User: anonymous   Login
Location: Scultetus-Sternwarte G�rlitz
(51.1356°N, 14.9514°E)
Time: 09:59:44
(UTC+01:00)
Language:

Iridium 3 - Orbit

View from above orbital plane
View from above orbital plane
View from above satellite
View from above satellite

Ground track
Ground track

The orbit data is extracted from the following two-line orbital elements,

1 25431U 98048A   15064.55055214  .00000230  00000-0  74906-4 0  9992
2 25431 086.3917 244.5313 0001843 095.2094 295.5602 14.34212240865986
Epoch (UTC): 05 March 2015 13:12:47
Eccentricity: 0.0001843
inclination: 86.3917°
perigee height: 776 km
apogee height: 779 km
right ascension of ascending node: 244.5313°
argument of perigee: 95.2094°
revolutions per day: 14.34212240
mean anomaly at epoch: 295.5602°
orbit number at epoch: 86598

The dashed part of the orbit path shows where the satellite is in the earth's shadow,  

DLR